Wind_Speed
34 35 36 37 37 38 38 38 38 39 39 40 41 41 42 42 42 42 41 41 41 41 41 41 40 40 39 38 38 37 37 37 36 36 35 35 34 34 33 33 32 32 31
35 36 37 39 39 40 40 40 40 40 40 41 42 42 43 43 44 44 44 44 43 43 43 43 43 42 41 41 40 39 39 39 38 37 36 36 36 36 35 34 33 33 32
35 36 37 38 39 41 42 42 42 42 43 43 43 44 45 45 45 46 46 45 45 45 45 45 45 44 44 44 43 42 41 41 40 39 38 38 38 37 36 36 35 34 33
36 36 38 38 40 41 43 44 44 45 45 46 46 45 45 46 45 46 46 46 46 46 46 47 47 46 46 46 45 44 43 42 41 41 40 40 39 38 37 37 37 36 35
37 38 39 39 40 41 42 44 45 46 46 46 46 45 45 45 46 46 47 47 47 46 46 46 47 48 48 46 45 44 44 43 43 42 41 41 40 39 38 38 38 37 37
38 39 39 39 41 42 43 44 44 44 44 45 44 44 45 45 46 47 47 48 49 49 47 46 46 46 47 46 46 46 45 45 44 44 43 43 43 42 41 41 40 40 39
38 38 39 40 40 41 41 42 42 42 42 43 44 44 45 45 46 47 48 49 49 49 49 47 46 46 47 47 46 46 47 46 45 44 44 44 43 43 43 41 41 41 40
38 38 39 39 39 40 40 40 41 40 41 41 43 44 45 45 46 47 48 48 48 48 49 50 49 47 47 48 48 48 48 48 47 46 45 45 44 44 43 42 41 41 40
37 37 38 38 38 38 39 40 40 40 40 41 41 42 43 44 45 45 47 47 47 47 48 50 51 50 50 50 49 50 50 50 49 48 47 47 46 46 45 45 43 42 42
36 37 37 37 37 38 38 38 39 40 40 40 40 41 40 41 42 43 43 45 46 47 48 48 49 50 51 51 51 51 52 52 51 50 49 48 47 47 48 47 46 45 44
36 36 36 36 37 37 37 37 38 39 39 39 39 39 39 39 40 40 41 42 44 45 47 47 48 48 49 51 51 50 51 53 53 52 52 51 50 50 50 50 50 49 48
36 36 36 36 36 36 36 36 37 37 37 38 38 39 40 40 40 40 41 42 42 43 44 45 46 47 47 49 49 49 48 49 51 52 52 53 53 52 50 51 51 50 50
35 36 36 35 35 35 35 35 36 36 37 38 38 39 39 40 40 41 41 42 42 42 43 44 44 45 45 46 47 47 48 48 49 50 51 52 53 53 53 53 53 53 52
35 35 35 35 35 35 35 35 36 36 36 37 37 38 39 39 39 40 41 42 43 43 44 44 45 46 46 47 47 46 48 49 50 50 51 51 52 53 54 55 55 54 54
34 34 34 35 35 35 35 35 35 35 35 35 36 37 38 39 40 40 41 42 42 42 43 44 45 46 47 48 49 49 49 50 51 52 52 53 53 54 55 55 55 54 55
35 35 35 35 35 35 35 35 35 35 35 35 36 37 38 38 39 39 41 42 42 43 43 44 46 47 47 48 49 50 51 52 52 52 53 54 54 54 55 56 56 56 56
35 35 36 36 35 35 35 35 35 35 35 36 37 37 38 38 39 40 40 41 42 43 43 44 46 47 48 48 49 50 51 53 53 53 52 53 54 55 57 56 56 57 57
34 35 35 35 35 36 36 36 36 36 36 36 37 37 38 39 40 40 40 41 42 43 44 45 46 47 47 48 49 50 51 52 53 53 53 53 53 53 54 56 58 59 60
33 33 34 35 36 36 36 36 36 37 37 37 37 38 38 39 39 40 41 41 41 42 43 44 45 46 46 47 48 49 50 51 51 52 53 54 54 54 54 55 57 59 60
32 33 35 35 36 36 36 36 36 37 37 38 38 38 38 38 38 39 40 41 41 42 43 44 45 46 47 47 47 48 48 49 50 51 52 54 55 56 57 57 58 59 60
34 35 36 36 36 36 37 37 37 38 38 39 39 39 39 39 39 39 39 40 41 42 43 45 46 47 48 48 48 49 49 50 51 51 52 53 55 56 58 59 59 60 61
35 36 36 37 37 37 37 38 38 38 38 38 39 39 40 40 41 41 41 41 42 43 44 45 46 47 48 49 50 50 50 51 52 53 53 55 56 57 58 59 60 61 62
35 36 36 36 37 37 37 37 38 38 38 39 39 39 40 41 41 42 42 43 43 44 44 45 46 48 49 50 51 52 52 53 53 55 55 56 57 57 58 60 61 61 62
35 35 36 37 37 37 37 38 39 40 40 40 40 40 41 41 42 43 43 44 45 46 46 47 48 49 50 51 52 52 53 54 55 56 57 57 58 58 59 60 60 60 61
35 36 37 37 37 38 38 39 40 40 40 41 41 42 42 43 43 44 45 45 46 47 47 48 49 49 50 51 52 53 54 55 55 56 57 58 58 58 59 59 59 59 60
37 38 38 38 39 39 40 40 41 41 41 41 42 43 43 44 44 45 45 46 46 47 48 48 49 50 51 52 53 54 55 56 56 56 57 57 57 57 57 57 58 59 60
Wind_Direction
277 276 275 275 274 275 275 274 274 273 273 273 272 271 270 270 270 270 271 271 272 272 271 271 270 268 267 267 267 267 266 266 266 267 267 267 267 267 268 268 268 269 270
277 277 277 276 275 275 274 274 274 274 274 273 273 272 271 271 271 271 270 270 271 271 270 269 268 268 266 266 266 265 265 265 265 265 266 268 268 267 267 267 267 267 268
279 280 280 280 277 276 275 275 275 275 275 274 274 273 272 271 271 270 269 269 270 269 268 267 266 266 266 264 265 264 264 264 264 264 265 266 266 266 267 267 266 266 267
280 280 281 282 280 278 277 276 276 275 275 275 274 274 273 272 270 269 268 268 269 268 268 266 265 264 264 263 263 263 263 262 262 262 263 264 264 264 265 266 266 266 266
281 282 282 282 281 280 279 278 277 277 276 275 274 273 273 272 270 269 268 267 267 268 268 266 264 264 263 262 262 262 262 262 262 262 262 263 263 263 264 265 265 265 265
282 283 283 283 283 282 281 280 279 278 276 275 274 273 273 272 271 270 269 268 266 266 266 265 264 263 263 262 261 261 262 262 262 263 263 263 262 262 262 263 263 264 264
283 283 284 285 285 285 283 282 281 279 278 276 275 274 273 272 272 271 270 269 267 266 265 264 265 264 264 263 262 260 261 261 262 262 262 262 263 262 262 261 261 262 263
283 284 286 286 286 286 284 283 282 280 280 278 277 276 274 273 273 272 270 269 268 267 266 265 264 264 263 262 262 260 260 261 262 260 261 262 262 262 260 260 260 260 261
284 285 286 287 287 286 285 283 282 281 281 280 279 277 276 274 274 273 272 270 269 267 266 266 266 265 264 263 264 262 261 261 261 261 262 262 260 259 258 259 258 261 261
285 286 287 288 288 286 286 285 283 282 282 280 279 278 278 277 276 274 272 271 270 269 267 266 266 266 266 265 264 263 262 261 260 260 260 259 258 257 258 257 258 260 261
286 286 287 288 288 288 287 285 284 283 282 281 280 279 279 278 278 276 275 274 272 271 269 267 267 266 266 265 265 263 261 260 260 259 259 259 258 258 258 257 258 260 261
285 285 286 288 288 288 288 287 286 285 283 282 281 280 279 278 279 278 277 275 275 273 271 270 268 267 266 265 263 262 262 261 260 260 260 259 259 259 258 258 258 258 259
284 285 286 288 290 290 291 291 289 288 286 284 283 283 281 279 280 280 278 277 275 276 274 272 269 268 267 266 264 264 264 263 261 261 262 261 260 260 259 259 259 258 258
284 285 287 289 291 292 292 291 291 290 288 287 285 284 283 281 281 280 278 278 276 276 274 272 271 271 268 267 268 266 266 264 263 263 263 261 260 260 259 259 259 258 257
285 287 288 289 290 291 292 292 292 291 290 289 288 287 285 282 281 281 279 279 278 277 277 274 273 273 272 270 269 269 269 268 266 265 263 261 261 260 259 258 259 258 257
284 285 287 288 289 291 292 293 293 293 292 290 290 288 287 285 283 282 281 280 278 277 278 276 275 274 273 272 271 269 268 267 267 266 264 263 262 262 261 260 258 257 257
285 286 287 289 289 290 291 292 292 292 292 292 291 290 288 287 285 283 282 281 279 279 279 278 276 275 274 273 272 271 270 268 267 266 264 263 262 262 262 261 259 258 258
285 286 287 288 289 290 290 291 291 292 292 291 291 292 291 290 288 285 283 282 280 280 280 279 277 276 275 273 272 271 271 270 269 268 266 264 263 262 262 260 259 258 258
287 287 288 289 290 290 291 291 291 291 291 290 291 292 293 292 291 288 286 284 282 281 281 280 279 277 276 275 274 273 272 271 270 269 268 266 265 264 264 262 260 259 258
288 288 289 290 290 290 290 291 291 291 290 290 290 291 292 292 292 291 289 287 285 284 283 282 280 278 278 277 276 275 274 272 271 270 270 269 267 266 266 264 263 260 258
289 290 290 290 291 290 290 290 290 290 290 290 289 290 291 291 292 291 290 289 287 286 285 284 283 281 280 278 277 276 275 274 273 272 272 271 270 269 268 267 265 262 260
290 291 290 291 291 290 289 290 290 291 291 291 291 291 291 291 292 292 291 290 289 288 287 286 284 283 282 280 278 277 276 275 275 274 273 272 271 270 269 267 266 265 262
291 292 291 291 291 291 291 291 291 292 292 292 292 292 292 292 292 292 292 292 291 291 290 288 287 285 283 281 280 279 278 276 276 275 274 273 272 271 269 269 268 266 263
292 292 292 292 292 292 292 292 293 293 293 292 292 293 293 293 293 293 292 292 292 292 291 290 289 288 286 284 282 281 280 279 278 277 275 274 273 272 271 270 268 265 263
291 292 292 291 292 292 292 293 293 294 293 293 293 293 293 293 293 293 293 293 293 292 292 291 290 289 289 287 285 283 281 280 279 278 277 276 274 273 272 271 268 265 263
291 292 292 291 291 292 293 293 294 294 294 294 294 294 294 294 294 294 294 294 294 293 293 292 292 291 291 290 288 286 284 282 280 279 278 277 276 275 273 271 268 266 264
Height
5811 5810 5810 5809 5808 5808 5807 5806 5805 5805 5804 5803 5803 5802 5802 5802 5801 5801 5801 5802 5802 5802 5802 5802 5802 5802 5803 5803 5803 5803 5803 5804 5804 5804 5804 5805 5805 5805 5805 5805 5805 5805 5805
5804 5803 5802 5801 5800 5799 5798 5797 5796 5796 5795 5794 5793 5793 5792 5792 5792 5792 5792 5792 5792 5792 5792 5792 5792 5793 5794 5794 5794 5794 5795 5795 5796 5796 5796 5797 5797 5797 5798 5798 5798 5798 5798
5796 5795 5794 5792 5791 5790 5788 5787 5787 5786 5785 5784 5783 5783 5782 5782 5782 5781 5781 5781 5782 5781 5782 5782 5782 5783 5784 5784 5785 5785 5786 5786 5787 5787 5788 5788 5789 5789 5790 5790 5790 5791 5791
5789 5787 5786 5784 5782 5780 5779 5778 5776 5775 5775 5774 5773 5772 5772 5771 5771 5771 5770 5770 5770 5770 5770 5771 5771 5772 5773 5774 5774 5775 5776 5777 5777 5778 5779 5780 5780 5781 5781 5782 5782 5783 5783
5781 5779 5777 5775 5773 5771 5770 5768 5766 5765 5764 5763 5762 5762 5761 5761 5760 5760 5760 5759 5759 5759 5759 5759 5760 5761 5762 5763 5763 5764 5765 5766 5767 5768 5769 5770 5771 5772 5772 5773 5774 5775 5775
5772 5771 5769 5767 5764 5762 5760 5758 5756 5754 5753 5752 5751 5751 5750 5750 5749 5749 5748 5748 5748 5748 5748 5748 5748 5749 5749 5751 5752 5754 5755 5756 5756 5757 5759 5760 5761 5762 5763 5764 5765 5766 5766
5764 5762 5760 5757 5755 5752 5750 5747 5746 5744 5743 5741 5741 5740 5740 5739 5738 5737 5736 5736 5736 5736 5736 5736 5737 5738 5738 5739 5741 5742 5743 5744 5745 5746 5748 5749 5750 5751 5753 5754 5755 5756 5757
5755 5753 5751 5748 5746 5743 5740 5738 5736 5734 5733 5731 5730 5729 5729 5729 5727 5726 5725 5724 5724 5724 5724 5724 5725 5726 5727 5727 5729 5730 5731 5732 5734 5735 5736 5738 5739 5741 5742 5743 5744 5745 5747
5747 5744 5742 5740 5737 5734 5731 5729 5726 5724 5722 5721 5720 5719 5718 5718 5717 5716 5714 5713 5713 5713 5712 5712 5713 5714 5714 5715 5716 5718 5719 5720 5722 5723 5725 5726 5727 5729 5730 5732 5733 5735 5736
5738 5736 5733 5731 5728 5725 5722 5719 5717 5714 5713 5711 5710 5708 5708 5707 5706 5706 5704 5702 5701 5701 5701 5701 5701 5702 5702 5702 5703 5705 5706 5707 5708 5710 5712 5714 5715 5717 5718 5720 5722 5723 5725
5730 5727 5725 5722 5719 5716 5713 5710 5707 5705 5703 5702 5700 5699 5698 5696 5695 5695 5694 5693 5691 5690 5689 5689 5689 5690 5690 5690 5691 5692 5692 5693 5695 5697 5699 5701 5702 5704 5705 5707 5709 5711 5713
5721 5719 5716 5714 5711 5707 5704 5702 5699 5696 5694 5693 5691 5689 5688 5687 5685 5684 5683 5682 5681 5680 5679 5678 5678 5678 5678 5678 5678 5679 5679 5680 5681 5683 5685 5687 5688 5690 5692 5694 5696 5698 5700
5713 5710 5708 5705 5702 5699 5696 5693 5691 5688 5686 5684 5682 5680 5678 5677 5675 5674 5673 5672 5671 5669 5668 5667 5666 5666 5666 5666 5666 5667 5667 5668 5668 5669 5671 5673 5674 5676 5678 5680 5682 5684 5686
5704 5702 5699 5697 5694 5691 5688 5685 5683 5680 5677 5674 5672 5670 5668 5666 5665 5663 5662 5661 5659 5658 5656 5656 5655 5654 5654 5654 5654 5654 5655 5655 5655 5656 5657 5659 5660 5662 5663 5665 5667 5670 5672
5695 5693 5691 5689 5686 5683 5680 5677 5674 5671 5668 5665 5663 5661 5658 5656 5654 5653 5651 5650 5648 5647 5646 5644 5643 5642 5641 5641 5641 5641 5641 5641 5642 5642 5643 5644 5645 5647 5648 5650 5652 5654 5657
5687 5685 5683 5680 5677 5674 5671 5668 5665 5662 5659 5656 5654 5651 5648 5646 5644 5642 5640 5638 5636 5635 5634 5632 5631 5630 5629 5628 5628 5627 5627 5627 5627 5628 5629 5629 5631 5632 5633 5635 5637 5639 5642
5678 5676 5674 5671 5668 5666 5663 5660 5656 5653 5650 5647 5644 5641 5639 5636 5634 5632 5629 5627 5625 5623 5621 5620 5618 5617 5616 5615 5615 5614 5613 5613 5613 5613 5614 5614 5615 5617 5618 5620 5621 5624 5626
5669 5667 5665 5662 5659 5656 5653 5650 5647 5644 5641 5638 5635 5632 5629 5626 5623 5621 5618 5616 5614 5612 5610 5608 5606 5604 5603 5602 5601 5600 5599 5599 5598 5599 5599 5599 5600 5601 5602 5603 5605 5607 5609
5661 5658 5656 5653 5650 5647 5644 5641 5638 5635 5631 5628 5625 5622 5619 5616 5613 5610 5607 5605 5602 5600 5598 5596 5594 5591 5590 5588 5587 5586 5585 5584 5583 5583 5583 5583 5584 5584 5585 5586 5587 5589 5592
5652 5649 5646 5643 5640 5637 5634 5631 5628 5624 5621 5618 5615 5612 5609 5606 5602 5599 5596 5594 5591 5589 5586 5583 5581 5579 5577 5575 5573 5572 5571 5569 5568 5568 5567 5567 5567 5567 5568 5569 5570 5571 5573
5643 5640 5637 5634 5631 5628 5624 5621 5618 5614 5611 5608 5605 5602 5598 5595 5592 5589 5586 5583 5580 5577 5574 5571 5569 5566 5563 5561 5559 5557 5556 5554 5553 5552 5551 5551 5551 5551 5550 5551 5551 5552 5554
5633 5630 5627 5624 5621 5618 5614 5611 5607 5604 5600 5597 5594 5591 5587 5584 5581 5578 5574 5571 5568 5565 5561 5558 5555 5552 5549 5546 5544 5542 5541 5539 5538 5536 5535 5533 5532 5532 5531 5531 5531 5532 5533
5624 5621 5617 5614 5611 5607 5604 5600 5597 5593 5590 5586 5583 5579 5576 5573 5569 5566 5562 5559 5555 5552 5548 5545 5542 5538 5535 5532 5529 5527 5524 5522 5520 5517 5516 5516 5513 5512 5511 5511 5510 5510 5511
5614 5611 5607 5604 5600 5597 5593 5590 5586 5583 5579 5575 5572 5568 5565 5561 5557 5554 5550 5547 5542 5539 5535 5531 5528 5524 5519 5516 5513 5510 5507 5505 5503 5499 5497 5496 5494 5492 5491 5490 5489 5488 5489
5604 5601 5597 5594 5590 5587 5583 5579 5575 5572 5568 5564 5560 5556 5553 5549 5545 5541 5538 5534 5530 5525 5521 5516 5512 5508 5504 5499 5496 5493 5490 5487 5485 5481 5477 5476 5474 5472 5471 5469 5467 5467 5467
5594 5591 5587 5584 5580 5577 5573 5568 5564 5561 5557 5553 5549 5545 5541 5537 5533 5528 5524 5520 5516 5511 5507 5502 5497 5492 5488 5483 5478 5475 5471 5468 5465 5463 5459 5456 5453 5451 5451 5449 5447 5445 5445